Сарыагач

Узбекистан     40°53′04″N   70°08′02″E
В апреле 2022 года жителям России запретили посещать сайт meteo.paraplan.net по решению Генеральной прокуратуры. Аудитория сайта уменьшилась в 10 раз. Владельцы сайта не видят смысла в поддержке погодного сервера в таких условиях. Сайт будет закрыт в октябре.
темп.,
°C
ветер,
м/с
пор.,
м/с
влажн.,
%
обл.,
%
осадки,
мм/ч
давл.,
гПа
погр.,
м
25 сентября, вс
вс2523:00+13зюз01300 0.0 101311
02:00+13св11320 0.0 101311
05:00+12всв12320 0.0 101311
08:00+17всв11230 0.0 1014133
11:00+22з22150 0.0 10121737
14:00+24з43140 0.0 10112374
17:00+22зюз44150 0.0 10121399
20:00+16юз11250 0.0 101511
26 сентября, пн
пн2623:00+14вюв01280 0.0 101611
02:00+12всв11300 0.0 101611
05:00+12всв11300 0.0 101711
08:00+18всв11190 0.0 1018104
11:00+22з33120 0.0 10171556
14:00+23зюз44110 0.0 10161923
17:00+22зюз45110 0.0 10171500
20:00+15ююз11200 0.0 101913
27 сентября, вт
вт2723:00+14зюз11230 0.0 101911
02:00+12юз22280 0.0 102012
05:00+10зюз11370 0.0 102012
08:00+14зюз11320 0.0 1020196
11:00+18з32270 0.0 1018677
14:00+19зюз44300 0.0 1016863
17:00+17зюз34320 0.0 1016642
20:00+12зюз11410 0.0 101817
28 сентября, ср
ср2823:00+11ю11380 0.0 101812
02:00+9ююв01400 0.0 101711
05:00+8ю01450 0.0 101710
08:00+14зюз00310 0.0 1016152
11:00+18з33240 0.0 1015742
14:00+20зюз45205 0.0 10131204
17:00+18зюз332242 0.0 1013547
20:00+12юз0132100 0.0 101511
29 сентября, чт
чт2923:00+11в01345 0.0 101410
02:00+9в11340 0.0 101410
05:00+10в122911 0.0 101311
08:00+16в12178 0.0 1013103
11:00+20з33163 0.0 10121018
14:00+22зюз44144 0.0 10101433
17:00+20зюз33185 0.0 1011820
20:00+13ю012886 0.0 101211